Lid_Strength_Index
2 2 2 2 1 1 0 1 1 1 1 1 2 2 2 2 2 2 3 2 -0 -2 -2 -2 -2 -2 -2 -2 -2 -2 -2 -1 -1 -0 -0 -0 -0 -0 0 0 0 0 0
2 1 1 0 0 0 -1 -0 0 -0 0 1 2 1 1 2 3 3 3 3 2 0 -1 -2 -2 -2 -2 -2 -2 -1 -1 -0 0 1 1 0 0 1 1 1 1 1 1
3 2 2 3 3 2 3 3 3 1 1 2 2 1 3 3 4 4 5 5 5 3 2 -0 -1 -2 -2 -1 -1 -0 0 1 1 2 2 1 1 1 1 1 1 1 1
3 4 4 5 4 4 5 5 5 2 3 1 2 3 3 4 5 5 6 6 7 8 6 3 2 1 -0 -1 -1 -0 0 1 2 2 2 2 2 2 2 2 2 2 2
6 6 6 6 6 7 8 7 6 4 3 2 4 5 5 6 6 8 9 9 9 10 10 7 6 3 1 -0 -1 -1 -0 1 2 2 2 2 2 2 2 2 2 2 2
7 8 8 8 8 8 9 8 6 5 3 3 4 6 7 7 8 9 10 10 10 11 11 11 10 9 3 1 0 -0 0 1 1 2 2 2 2 2 3 3 2 2 2
8 9 9 9 9 10 10 10 8 6 5 4 5 7 8 9 10 10 10 11 11 11 12 12 12 11 10 4 2 2 1 1 1 2 2 2 2 2 2 1 1 2 2
10 10 10 11 11 11 11 11 10 8 8 7 4 5 9 9 11 11 11 11 12 12 13 13 13 12 12 11 6 3 3 2 2 3 2 3 2 2 2 2 1 1 1
11 11 11 11 12 12 12 12 12 10 9 9 9 7 9 10 10 10 11 11 12 13 13 13 13 13 13 12 10 8 5 4 4 3 3 3 3 3 3 2 2 2 2
12 11 12 12 13 13 13 12 12 12 11 13 11 10 8 7 9 10 11 12 12 12 14 14 14 13 13 13 11 7 6 5 5 5 4 4 4 3 3 3 3 3 3
12 12 12 13 13 13 14 13 14 13 13 13 13 12 10 9 9 6 8 11 12 13 13 14 13 13 13 14 13 10 6 6 6 5 5 5 4 4 4 3 3 3 4
14 14 13 13 13 14 14 14 14 14 14 14 13 13 13 12 12 12 11 12 12 14 12 12 13 13 13 13 11 9 7 7 6 6 6 6 5 5 4 3 3 3 4
15 15 14 14 14 14 14 14 15 15 15 14 14 14 14 14 13 13 12 12 12 14 13 13 14 13 12 13 11 10 8 7 6 6 6 6 5 5 5 4 4 5 5
15 15 15 14 14 14 14 14 15 15 14 14 14 14 14 14 14 14 14 14 13 12 14 15 14 12 12 11 11 11 12 8 6 6 7 6 6 6 6 6 6 6 6
14 15 15 14 14 14 14 15 15 14 13 13 14 14 14 15 15 15 15 14 13 14 13 14 14 12 11 12 11 13 13 10 7 7 8 7 7 7 7 7 7 7 6
15 15 15 14 14 14 14 15 14 14 14 14 14 15 15 15 15 15 15 15 15 14 12 13 13 13 12 12 11 12 12 11 9 9 8 9 9 9 8 8 8 7 7
15 15 14 14 14 15 15 15 14 14 14 14 15 15 15 15 16 16 15 15 15 13 13 14 13 13 14 14 14 14 13 14 14 11 10 10 10 10 9 9 9 9 8
14 14 15 15 15 15 14 14 14 14 15 15 15 15 16 15 17 16 15 16 15 14 13 14 14 15 16 15 16 16 15 15 15 12 12 11 11 11 11 11 11 10 10
15 15 15 15 15 14 14 14 14 14 15 15 16 16 16 16 16 16 16 16 15 14 14 14 16 15 16 17 17 16 17 17 16 14 14 14 13 12 12 12 12 12 11
15 16 15 15 14 14 14 14 14 15 15 15 15 16 16 16 15 16 15 16 15 15 15 16 16 17 17 17 18 19 19 18 19 16 17 16 15 14 14 14 14 14 12
15 15 15 15 14 14 14 14 14 15 16 17 16 15 15 14 12 14 15 16 16 16 16 17 17 17 19 19 20 20 20 20 19 19 20 19 18 18 18 17 16 14 12
15 15 15 15 15 14 12 11 14 15 16 16 17 16 16 15 12 12 12 13 15 16 17 17 18 19 20 20 20 21 21 23 24 19 21 21 18 19 19 19 15 14 12
16 16 15 15 15 15 11 11 12 15 16 17 17 16 16 15 15 15 14 15 15 14 15 17 19 19 20 20 20 22 22 23 22 20 21 22 20 21 19 19 16 14 13
15 15 15 15 15 15 11 10 11 16 16 17 16 16 16 16 16 17 18 18 18 19 19 18 19 19 19 19 20 20 21 23 24 21 21 24 22 22 20 20 17 15 13
15 15 15 15 15 15 12 11 11 16 16 16 16 16 15 16 15 14 18 18 20 19 15 15 16 15 15 16 19 22 29 29 28 23 21 23 22 23 22 22 19 17 14
14 15 15 15 16 16 12 11 11 15 16 17 16 15 14 15 14 13 18 19 22 21 21 23 21 18 20 19 19 21 23 29 29 29 21 24 24 24 26 21 21 20 20